| time (UTC) | temp C | wind direction | speed KPH | gust KPH | rain 1hr cm | rain 24hr cm | rain mn cm | humidity % | barometer mb |
| 20260506035608 | 22 | 127 | 6.4 | 19.3 | 0.00 | 0.00 | 0.00 | 50 | 1009.2 |
| 20260506034607 | 22 | 229 | 8.0 | 22.5 | 0.00 | 0.00 | 0.00 | 50 | 1009.2 |
| 20260506033619 | 22 | 155 | 6.4 | 22.5 | 0.00 | 0.00 | 0.00 | 49 | 1009.1 |
| 20260506032610 | 22 | 167 | 6.4 | 19.3 | 0.00 | 0.00 | 0.00 | 49 | 1009.2 |
| 20260506031620 | 22 | 260 | 8.0 | 27.4 | 0.00 | 0.00 | 0.00 | 47 | 1009.2 |
| 20260506030612 | 23 | 173 | 6.4 | 27.4 | 0.00 | 0.00 | 0.00 | 47 | 1009.1 |
| 20260506024456 | 23 | 160 | 9.7 | 20.9 | 0.00 | 0.00 | 0.00 | 45 | 1009.1 |
| 20260506023424 | 23 | 188 | 6.4 | 20.9 | 0.00 | 0.00 | 0.00 | 44 | 1009.2 |
| 20260506022358 | 23 | 169 | 6.4 | 17.7 | 0.00 | 0.00 | 0.00 | 43 | 1009.3 |
| 20260506021324 | 23 | 208 | 6.4 | 16.1 | 0.00 | 0.00 | 0.00 | 42 | 1009.3 |
| 20260506020258 | 24 | 204 | 8.0 | 16.1 | 0.00 | 0.00 | 0.00 | 42 | 1009.1 |
| 20260506012939 | 24 | 191 | 6.4 | 19.3 | 0.00 | 0.00 | 0.00 | 39 | 1008.8 |
| 20260506011908 | 25 | 136 | 8.0 | 20.9 | 0.00 | 0.00 | 0.00 | 38 | 1008.7 |
| 20260506010927 | 25 | 220 | 6.4 | 20.9 | 0.00 | 0.00 | 0.00 | 37 | 1008.6 |
| 20260506005902 | 25 | 159 | 6.4 | 17.7 | 0.00 | 0.00 | 0.00 | 35 | 1008.4 |
| 20260506004922 | 25 | 223 | 4.8 | 16.1 | 0.00 | 0.00 | 0.00 | 34 | 1008.3 |
| 20260506003852 | 25 | 211 | 4.8 | 22.5 | 0.00 | 0.00 | 0.00 | 33 | 1008.1 |
| 20260506002823 | 26 | 180 | 6.4 | 19.3 | 0.00 | 0.00 | 0.00 | 32 | 1008.2 |
| 20260506001838 | 26 | 261 | 6.4 | 17.7 | 0.00 | 0.00 | 0.00 | 31 | 1008.2 |
| 20260506000817 | 26 | 196 | 6.4 | 20.9 | 0.00 | 0.00 | 0.00 | 30 | 1008.0 |
| 20260505235743 | 26 | 219 | 6.4 | 24.1 | 0.00 | 0.00 | 0.00 | 30 | 1007.9 |
| 20260505234728 | 26 | 169 | 8.0 | 24.1 | 0.00 | 0.00 | 0.00 | 30 | 1008.0 |
| 20260505233735 | 27 | 252 | 4.8 | 22.5 | 0.00 | 0.00 | 0.00 | 30 | 1007.8 |
| 20260505232707 | 27 | 224 | 8.0 | 22.5 | 0.00 | 0.00 | 0.00 | 30 | 1007.8 |
| 20260505231714 | 27 | 236 | 6.4 | 19.3 | 0.00 | 0.00 | 0.00 | 29 | 1007.8 |
| 20260505225547 | 27 | 225 | 8.0 | 24.1 | 0.00 | 0.00 | 0.00 | 27 | 1007.9 |
| 20260505224531 | 27 | 324 | 6.4 | 24.1 | 0.00 | 0.00 | 0.00 | 26 | 1007.8 |
| 20260505223459 | 27 | 252 | 8.0 | 24.1 | 0.00 | 0.00 | 0.00 | 26 | 1008.0 |
| 20260505221326 | 28 | 241 | 8.0 | 33.8 | 0.00 | 0.00 | 0.00 | 27 | 1007.8 |
| 20260505220341 | 28 | 249 | 12.9 | 33.8 | 0.00 | 0.00 | 0.00 | 26 | 1007.8 |
| 20260505215404 | 28 | 220 | 8.0 | 27.4 | 0.00 | 0.00 | 0.00 | 26 | 1007.8 |
| 20260505214405 | 28 | 255 | 8.0 | 27.4 | 0.00 | 0.00 | 0.00 | 26 | 1007.8 |
| 20260505213352 | 28 | 235 | 8.0 | 24.1 | 0.00 | 0.00 | 0.00 | 26 | 1007.6 |
| 20260505211143 | 28 | 307 | 4.8 | 19.3 | 0.00 | 0.00 | 0.00 | 27 | 1007.6 |
| 20260505205028 | 28 | 174 | 11.3 | 33.8 | 0.00 | 0.00 | 0.00 | 27 | 1007.6 |
| 20260505204043 | 29 | 317 | 11.3 | 32.2 | 0.00 | 0.00 | 0.00 | 27 | 1007.6 |
| 20260505203101 | 29 | 214 | 11.3 | 32.2 | 0.00 | 0.00 | 0.00 | 26 | 1007.7 |
| 20260505202041 | 30 | 42 | 8.0 | 33.8 | 0.00 | 0.00 | 0.00 | 26 | 1007.5 |
| 20260505201059 | 30 | 205 | 11.3 | 33.8 | 0.00 | 0.00 | 0.00 | 27 | 1007.6 |
| 20260505200109 | 29 | 182 | 12.9 | 33.8 | 0.00 | 0.00 | 0.00 | 27 | 1007.7 |
| 20260505195126 | 30 | 209 | 8.0 | 29.0 | 0.00 | 0.00 | 0.00 | 28 | 1007.8 |
| 20260505194136 | 30 | 199 | 9.7 | 35.4 | 0.00 | 0.00 | 0.00 | 29 | 1007.9 |
| 20260505193154 | 29 | 179 | 9.7 | 35.4 | 0.00 | 0.00 | 0.00 | 29 | 1008.0 |
| 20260505192158 | 30 | 201 | 11.3 | 32.2 | 0.00 | 0.00 | 0.00 | 28 | 1008.1 |
| 20260505190048 | 30 | 224 | 9.7 | 32.2 | 0.00 | 0.00 | 0.00 | 26 | 1008.4 |
| 20260505185025 | 29 | 274 | 9.7 | 29.0 | 0.00 | 0.00 | 0.00 | 28 | 1008.6 |
| 20260505184034 | 29 | 161 | 11.3 | 30.6 | 0.00 | 0.00 | 0.00 | 29 | 1008.8 |
| 20260505180756 | 30 | 180 | 8.0 | 32.2 | 0.00 | 0.00 | 0.00 | 30 | 1009.2 |
| 20260505175744 | 30 | 221 | 9.7 | 32.2 | 0.00 | 0.00 | 0.00 | 28 | 1009.3 |
| 20260505173633 | 30 | 201 | 9.7 | 30.6 | 0.00 | 0.00 | 0.00 | 30 | 1009.5 |
| 20260505171459 | 29 | 212 | 8.0 | 22.5 | 0.00 | 0.00 | 0.00 | 29 | 1009.6 |
| 20260505170520 | 28 | 263 | 8.0 | 22.5 | 0.00 | 0.00 | 0.00 | 31 | 1009.7 |
| 20260505165535 | 28 | 255 | 6.4 | 20.9 | 0.00 | 0.00 | 0.00 | 36 | 1009.8 |
| 20260505164539 | 28 | 228 | 6.4 | 20.9 | 0.00 | 0.00 | 0.00 | 36 | 1009.9 |
| 20260505163532 | 27 | 260 | 8.0 | 17.7 | 0.00 | 0.00 | 0.00 | 39 | 1010.1 |
| 20260505162530 | 27 | 229 | 6.4 | 19.3 | 0.00 | 0.00 | 0.00 | 38 | 1010.3 |
| 20260505161533 | 27 | 198 | 6.4 | 19.3 | 0.00 | 0.00 | 0.00 | 40 | 1010.6 |
| 20260505160517 | 27 | 194 | 6.4 | 17.7 | 0.00 | 0.00 | 0.00 | 39 | 1010.6 |
| 20260505152333 | 26 | 257 | 4.8 | 16.1 | 0.00 | 0.00 | 0.00 | 42 | 1011.0 |
| 20260505150212 | 25 | 200 | 8.0 | 17.7 | 0.00 | 0.00 | 0.00 | 42 | 1010.9 |
| 20260505124526 | 21 | 279 | 4.8 | 12.9 | 0.00 | 0.00 | 0.00 | 47 | 1011.2 |
| 20260505123509 | 20 | 215 | 4.8 | 14.5 | 0.00 | 0.00 | 0.00 | 48 | 1011.2 |
| 20260505122437 | 20 | 227 | 4.8 | 14.5 | 0.00 | 0.00 | 0.00 | 48 | 1011.3 |
| 20260505121404 | 20 | 259 | 4.8 | 12.9 | 0.00 | 0.00 | 0.00 | 50 | 1011.3 |
| 20260505120410 | 19 | 235 | 3.2 | 12.9 | 0.00 | 0.00 | 0.00 | 51 | 1011.1 |
| 20260505115348 | 18 | 226 | 1.6 | 9.7 | 0.00 | 0.00 | 0.00 | 54 | 1011.0 |
| 20260505113154 | 17 | 189 | 3.2 | 9.7 | 0.00 | 0.00 | 0.00 | 56 | 1010.8 |
| 20260505110944 | 16 | 235 | 1.6 | 16.1 | 0.00 | 0.00 | 0.00 | 57 | 1010.6 |
| 20260505101832 | 16 | 214 | 3.2 | 14.5 | 0.00 | 0.00 | 0.00 | 58 | 1010.1 |
| 20260505100854 | 16 | 188 | 3.2 | 14.5 | 0.00 | 0.00 | 0.00 | 59 | 1010.1 |
| 20260505095846 | 16 | 169 | 4.8 | 14.5 | 0.00 | 0.00 | 0.00 | 58 | 1010.1 |
| 20260505094831 | 16 | 213 | 4.8 | 12.9 | 0.00 | 0.00 | 0.00 | 58 | 1010.0 |
| 20260505093801 | 16 | 189 | 3.2 | 11.3 | 0.00 | 0.00 | 0.00 | 58 | 1009.9 |
| 20260505091601 | 16 | 173 | 4.8 | 12.9 | 0.00 | 0.00 | 0.00 | 58 | 1009.7 |
| 20260505090548 | 16 | 149 | 4.8 | 12.9 | 0.00 | 0.00 | 0.00 | 58 | 1009.6 |
| 20260505085523 | 16 | 234 | 3.2 | 14.5 | 0.00 | 0.00 | 0.00 | 58 | 1009.7 |
| 20260505084513 | 16 | 167 | 4.8 | 14.5 | 0.00 | 0.00 | 0.00 | 59 | 1009.7 |
| 20260505083501 | 16 | 161 | 4.8 | 14.5 | 0.00 | 0.00 | 0.00 | 60 | 1009.7 |
| 20260505081254 | 16 | 178 | 6.4 | 14.5 | 0.00 | 0.00 | 0.00 | 61 | 1009.7 |
| 20260505080237 | 16 | 163 | 4.8 | 14.5 | 0.00 | 0.00 | 0.00 | 61 | 1009.7 |
| 20260505075215 | 16 | 161 | 4.8 | 12.9 | 0.00 | 0.00 | 0.00 | 61 | 1009.6 |
| 20260505074210 | 16 | 217 | 4.8 | 11.3 | 0.00 | 0.00 | 0.00 | 61 | 1009.6 |
| 20260505072112 | 16 | 181 | 6.4 | 12.9 | 0.00 | 0.00 | 0.00 | 61 | 1009.6 |
| 20260505071043 | 16 | 185 | 3.2 | 8.0 | 0.00 | 0.00 | 0.00 | 60 | 1009.5 |
| 20260505070047 | 16 | 166 | 3.2 | 11.3 | 0.00 | 0.00 | 0.00 | 60 | 1009.4 |
| 20260505065021 | 17 | 163 | 3.2 | 11.3 | 0.00 | 0.00 | 0.00 | 60 | 1009.4 |
| 20260505064004 | 17 | 182 | 3.2 | 8.0 | 0.00 | 0.00 | 0.00 | 59 | 1009.4 |
| 20260505062940 | 17 | 175 | 1.6 | 8.0 | 0.00 | 0.00 | 0.00 | 59 | 1009.4 |
| 20260505060806 | 17 | 190 | 1.6 | 9.7 | 0.00 | 0.00 | 0.00 | 59 | 1009.4 |
| 20260505054616 | 17 | 173 | 1.6 | 9.7 | 0.00 | 0.00 | 0.00 | 58 | 1009.5 |
| 20260505053556 | 17 | 195 | 0.0 | 6.4 | 0.00 | 0.00 | 0.00 | 58 | 1009.5 |
| 20260505052544 | 17 | 196 | 0.0 | 6.4 | 0.00 | 0.00 | 0.00 | 57 | 1009.5 |
| 20260505051543 | 18 | 166 | 0.0 | 4.8 | 0.00 | 0.00 | 0.00 | 56 | 1009.6 |
| 20260505050537 | 18 | 166 | 0.0 | 4.8 | 0.00 | 0.00 | 0.00 | 55 | 1009.5 |
| 20260505041438 | 18 | 227 | 0.0 | 9.7 | 0.00 | 0.00 | 0.00 | 52 | 1009.8 |